Temp
67 65 64 63 64 65 66 65 65 66 66 67 66 66 66 66 67 65 63 64 64 62 60 60 59 59 58 58 58 58 58 55 53 54 56 61 61 61 62 62 63 62 61
66 65 63 64 65 65 65 65 65 66 66 67 67 67 68 67 67 66 65 64 61 60 59 59 60 60 58 58 58 59 58 56 55 53 58 59 60 61 61 61 61 63 62
64 63 64 65 65 65 65 65 66 66 66 67 68 68 69 68 66 66 65 62 61 60 60 60 60 59 58 59 59 59 57 57 56 56 58 59 60 61 60 60 59 60 61
65 65 66 66 66 66 66 66 66 67 67 67 68 68 69 68 68 63 63 61 60 60 60 60 60 60 60 59 60 59 57 56 57 58 58 58 58 59 59 58 56 58 57
67 67 67 67 67 67 67 67 68 67 68 68 68 68 67 66 65 63 62 61 60 59 59 59 60 60 60 60 60 57 57 57 58 59 57 57 57 57 57 57 56 57 57
66 66 68 67 66 66 67 67 67 65 66 66 66 64 62 62 50 54 59 59 59 58 58 58 60 59 58 54 55 56 58 59 58 59 57 57 57 56 57 57 56 56 54
65 67 66 67 65 65 65 66 65 65 65 64 60 60 58 57 48 49 53 59 58 58 58 59 60 61 59 59 53 54 53 53 58 62 57 59 57 58 58 57 54 55 55
65 66 66 66 66 66 66 64 63 65 63 59 58 58 58 54 47 48 51 58 58 58 59 60 60 60 59 58 58 57 57 58 58 60 61 57 57 60 58 57 55 56 57
66 66 67 68 67 66 64 63 63 60 59 58 59 58 57 55 46 46 54 57 57 56 57 59 60 59 49 50 59 57 55 54 51 51 51 49 47 50 55 60 56 56 54
66 68 68 69 66 66 65 64 60 61 60 59 57 56 55 55 46 46 54 57 57 55 56 56 51 55 45 47 59 58 56 55 55 54 54 50 50 51 52 62 60 57 55
68 68 68 68 66 66 62 61 61 61 59 56 55 56 58 57 53 46 49 57 57 55 56 55 53 44 44 46 51 58 55 55 53 56 56 56 56 57 58 59 61 61 56
67 68 67 67 68 65 62 62 61 59 57 56 57 57 57 57 49 46 48 52 53 58 56 56 51 43 44 46 51 43 45 52 58 57 56 55 55 56 57 58 59 60 61
65 64 63 66 66 65 63 61 59 58 59 57 57 56 56 56 54 46 46 46 50 57 57 49 43 42 43 45 43 44 49 58 57 56 55 55 57 57 57 57 57 59 59
64 62 62 62 64 64 63 61 59 59 58 57 56 57 56 55 55 55 53 52 48 50 48 50 48 47 47 47 52 55 58 58 58 56 56 56 57 57 57 57 56 57 57
63 63 60 60 61 55 50 55 59 59 58 58 58 59 56 54 54 52 53 56 56 52 54 56 56 56 56 56 56 57 57 57 57 56 56 56 56 57 56 57 56 55 54
62 61 59 57 56 54 54 52 42 44 45 45 49 55 54 46 43 44 44 44 44 45 56 56 55 56 56 56 55 55 56 55 57 57 57 57 56 56 57 57 57 55 54
62 59 59 56 56 55 56 56 54 47 42 42 43 44 45 43 41 42 42 42 42 49 57 56 56 56 56 56 56 56 55 56 57 58 57 57 57 57 54 57 57 56 55
61 50 58 57 56 56 57 57 58 58 55 53 42 43 41 41 41 41 42 47 55 54 57 56 56 56 56 56 55 57 57 56 57 57 57 58 58 58 56 57 56 55 54
61 59 59 57 57 55 57 58 60 58 55 51 49 44 41 39 40 42 45 58 57 56 56 56 57 57 55 54 54 55 58 57 55 56 57 57 58 58 56 57 57 48 50
62 51 55 58 57 57 57 57 57 56 56 56 54 50 48 51 53 54 56 57 57 56 57 56 57 56 55 55 56 56 56 54 55 56 57 58 58 59 58 58 57 54 53
61 58 52 59 58 58 58 58 58 59 58 57 54 50 41 56 54 55 56 58 58 59 59 59 59 56 57 57 58 58 58 58 59 58 58 58 57 56 56 55 55 55 55
61 60 60 60 59 58 58 59 59 60 58 56 53 47 38 57 57 55 52 51 51 51 55 54 52 51 51 49 51 57 59 59 59 60 60 60 59 57 56 56 55 55 55
62 60 60 60 59 52 57 59 59 58 58 57 55 55 57 55 51 50 48 46 45 45 46 48 47 47 48 48 48 47 54 53 51 55 55 56 57 57 57 56 58 57 55
63 61 60 59 59 58 58 58 57 52 57 58 57 54 51 49 46 45 45 46 44 43 44 44 45 45 44 44 46 43 45 46 52 53 55 55 54 53 55 54 53 53 52
59 59 59 59 59 59 57 57 58 59 57 55 53 50 48 47 45 43 44 43 43 41 41 42 42 43 43 41 43 44 39 39 46 42 54 54 54 53 52 52 52 50 51
52 53 53 56 57 58 58 55 53 52 50 50 48 47 45 44 43 42 41 41 41 40 40 41 41 41 41 40 39 36 37 37 42 39 52 52 51 51 50 50 49 50 48
MSLP
995.17 995.40 995.84 996.21 996.68 997.27 997.91 998.53 999.15 999.64 1000.48 1001.12 1001.74 1002.30 1002.88 1003.58 1003.82 1004.43 1004.95 1005.51 1006.17 1006.62 1006.97 1007.35 1007.76 1008.05 1008.54 1008.86 1009.12 1009.38 1009.79 1010.15 1010.73 1010.91 1010.91 1010.84 1011.02 1011.26 1011.42 1011.67 1011.82 1011.97 1012.27
994.13 994.55 995.15 995.67 996.33 997.11 997.77 998.17 998.93 999.56 1000.41 1000.87 1001.40 1002.11 1002.83 1003.36 1003.82 1004.33 1005.03 1005.61 1006.16 1006.57 1006.87 1007.26 1007.64 1008.05 1008.42 1008.74 1009.02 1009.31 1009.59 1009.93 1010.27 1010.82 1010.98 1010.95 1011.13 1011.43 1011.74 1011.89 1012.08 1012.22 1012.49
993.65 993.94 994.81 995.56 996.03 996.77 997.38 997.94 998.72 999.63 1000.11 1000.70 1001.22 1001.97 1002.58 1003.16 1003.64 1004.22 1004.71 1005.43 1005.90 1006.20 1006.57 1006.93 1007.34 1007.84 1008.23 1008.53 1008.75 1009.10 1009.39 1009.81 1009.98 1010.37 1010.88 1011.02 1011.31 1011.63 1011.95 1012.23 1012.53 1012.79 1012.99
993.33 993.48 994.50 994.99 995.66 996.42 996.99 997.74 998.50 999.17 999.88 1000.59 1001.10 1001.79 1002.38 1002.92 1003.54 1004.32 1004.98 1005.45 1005.74 1006.04 1006.34 1006.63 1007.09 1007.51 1007.75 1008.15 1008.64 1008.88 1009.22 1009.70 1010.02 1010.39 1010.75 1011.15 1011.48 1011.86 1012.17 1012.60 1013.16 1013.41 1013.66
992.96 993.39 994.08 994.63 995.44 996.22 997.03 997.70 998.22 999.07 999.84 1000.38 1001.15 1001.85 1002.39 1002.92 1003.67 1004.43 1004.93 1005.30 1005.73 1006.04 1006.30 1006.53 1006.80 1007.09 1007.39 1007.74 1008.22 1008.73 1009.08 1009.59 1009.97 1010.43 1010.73 1011.22 1011.67 1011.99 1012.27 1012.80 1013.39 1013.70 1014.13
993.27 993.74 993.65 994.71 995.53 996.29 996.88 997.50 998.40 999.23 999.88 1000.57 1001.34 1002.04 1002.80 1003.46 1003.89 1004.24 1004.73 1005.28 1005.66 1005.92 1006.21 1006.46 1006.62 1006.93 1007.32 1007.61 1007.98 1008.24 1008.53 1009.08 1009.68 1010.14 1010.57 1011.08 1011.61 1011.99 1012.33 1012.78 1013.32 1013.76 1014.47
993.20 993.91 994.23 994.63 995.47 996.28 997.01 997.88 998.76 999.51 1000.23 1001.03 1001.73 1002.57 1003.44 1004.10 1004.13 1004.35 1004.79 1005.33 1005.74 1005.99 1006.20 1006.39 1006.65 1006.93 1007.17 1007.49 1007.98 1008.27 1008.64 1008.82 1008.82 1009.31 1010.16 1010.85 1011.49 1011.89 1012.20 1012.95 1013.29 1013.74 1014.43
992.98 993.91 994.50 994.73 995.40 996.45 997.26 998.17 999.13 999.82 1000.67 1001.43 1002.35 1003.06 1003.68 1004.45 1004.64 1004.81 1005.05 1005.44 1005.79 1005.99 1006.12 1006.39 1006.58 1006.86 1007.09 1007.43 1007.80 1008.46 1008.97 1009.30 1009.47 1009.51 1009.88 1010.65 1011.16 1011.77 1012.08 1012.52 1013.17 1013.98 1014.56
992.98 994.13 994.47 994.39 995.30 996.32 997.39 998.73 999.57 1000.29 1001.26 1001.98 1002.68 1003.37 1004.08 1004.73 1004.99 1005.05 1005.26 1005.69 1006.00 1006.28 1006.36 1006.48 1006.64 1006.95 1007.09 1007.29 1007.79 1008.50 1009.24 1009.74 1009.94 1009.85 1010.19 1010.72 1011.22 1011.57 1011.96 1012.50 1013.28 1013.86 1014.76
993.77 994.18 994.06 994.44 995.51 996.80 997.73 998.87 999.86 1000.58 1001.60 1002.36 1003.29 1004.00 1004.33 1004.75 1005.21 1005.39 1005.55 1005.94 1006.38 1006.55 1006.70 1006.98 1007.02 1007.16 1007.29 1007.70 1007.85 1008.42 1009.27 1009.93 1010.33 1010.88 1011.37 1011.72 1011.75 1012.00 1012.07 1012.23 1012.90 1013.60 1014.38
993.66 993.59 994.05 994.94 995.97 997.15 998.17 999.32 1000.33 1001.18 1002.08 1003.09 1003.68 1004.29 1004.52 1004.82 1005.46 1005.63 1005.73 1006.07 1006.32 1006.66 1006.98 1007.36 1007.57 1007.51 1007.77 1008.13 1008.20 1008.62 1009.32 1010.08 1010.62 1010.97 1011.49 1011.99 1012.35 1012.59 1012.73 1012.66 1012.81 1013.15 1014.01
992.67 993.51 994.49 995.53 996.40 997.48 998.66 999.92 1000.69 1001.59 1002.61 1003.55 1004.10 1004.58 1004.92 1005.33 1005.55 1005.86 1005.88 1006.07 1006.40 1006.74 1007.13 1007.45 1007.79 1007.86 1008.09 1008.42 1008.78 1009.14 1009.66 1010.12 1010.59 1011.10 1011.63 1012.11 1012.45 1012.78 1013.05 1013.20 1013.21 1013.38 1013.54
993.07 994.03 995.10 995.84 996.84 997.97 999.23 1000.35 1001.30 1002.05 1002.83 1003.68 1004.24 1004.80 1005.34 1005.63 1005.92 1006.09 1006.14 1006.35 1006.66 1007.02 1007.31 1007.62 1008.02 1008.10 1008.39 1008.89 1009.26 1009.62 1009.95 1010.26 1010.77 1011.30 1011.75 1012.15 1012.48 1012.82 1013.15 1013.49 1013.66 1013.70 1013.92
993.59 994.72 995.80 996.50 997.53 998.71 999.81 1000.66 1001.59 1002.42 1003.12 1003.75 1004.43 1005.00 1005.47 1005.85 1006.10 1006.33 1006.63 1006.86 1007.09 1007.52 1007.91 1008.29 1008.47 1008.67 1008.96 1009.51 1010.00 1010.15 1010.29 1010.53 1010.86 1011.42 1011.89 1012.24 1012.64 1012.99 1013.30 1013.52 1013.88 1014.09 1014.35
994.03 995.30 996.58 997.25 998.33 999.81 1001.02 1001.80 1002.12 1002.49 1002.56 1003.39 1004.26 1004.79 1005.32 1005.90 1006.16 1006.26 1006.56 1006.93 1007.26 1007.65 1007.99 1008.28 1008.57 1008.97 1009.57 1009.89 1010.16 1010.45 1010.73 1010.99 1011.29 1011.63 1011.98 1012.34 1012.75 1013.09 1013.49 1013.70 1013.97 1014.31 1014.57
994.92 996.16 997.10 998.09 999.18 1000.33 1001.34 1002.43 1002.95 1003.02 1003.09 1003.43 1003.97 1004.46 1005.35 1005.56 1006.09 1006.53 1006.83 1007.05 1007.39 1007.74 1007.98 1008.34 1008.83 1009.28 1009.65 1010.07 1010.41 1010.80 1011.07 1011.31 1011.61 1011.86 1012.19 1012.50 1012.84 1013.22 1013.49 1013.84 1014.05 1014.39 1014.68
995.38 996.62 997.53 998.50 999.60 1000.49 1001.39 1002.11 1003.16 1004.30 1004.22 1004.36 1004.41 1004.90 1005.40 1006.08 1006.42 1006.83 1007.17 1007.42 1007.65 1007.82 1008.14 1008.62 1008.99 1009.45 1009.89 1010.24 1010.54 1010.88 1011.18 1011.42 1011.59 1011.82 1012.13 1012.44 1012.78 1013.14 1013.48 1013.70 1013.88 1014.21 1014.46
995.85 996.91 997.88 998.97 999.77 1000.51 1001.17 1001.91 1002.60 1003.50 1004.33 1005.11 1005.77 1005.90 1006.03 1006.39 1006.81 1007.18 1007.54 1007.74 1008.03 1008.11 1008.51 1008.90 1009.27 1009.60 1009.98 1010.28 1010.62 1010.90 1011.19 1011.50 1011.71 1011.88 1012.14 1012.35 1012.65 1012.98 1013.35 1013.58 1013.83 1013.98 1014.25
996.51 997.53 998.42 999.37 1000.03 1000.58 1001.39 1002.17 1002.74 1003.49 1004.44 1005.36 1006.28 1006.81 1007.28 1007.29 1007.53 1007.74 1007.71 1007.76 1008.12 1008.50 1008.78 1009.13 1009.47 1009.84 1010.16 1010.44 1010.72 1010.88 1011.07 1011.40 1011.70 1011.90 1012.04 1012.23 1012.46 1012.79 1013.05 1013.30 1013.52 1013.77 1014.07
996.79 997.67 998.56 999.46 1000.29 1001.07 1001.79 1002.39 1003.07 1003.80 1004.57 1005.24 1006.21 1007.30 1007.76 1007.70 1007.98 1008.15 1008.03 1008.10 1008.38 1008.78 1009.08 1009.36 1009.62 1009.93 1010.25 1010.50 1010.75 1011.03 1011.30 1011.61 1011.83 1011.91 1012.14 1012.19 1012.32 1012.55 1012.87 1013.11 1013.30 1013.59 1013.77
997.43 998.35 998.91 999.85 1000.70 1001.39 1002.04 1002.64 1003.28 1003.92 1004.71 1005.47 1006.70 1007.66 1007.69 1007.97 1008.27 1008.34 1008.21 1008.37 1008.57 1008.85 1009.21 1009.57 1009.97 1010.29 1010.50 1010.65 1010.79 1011.01 1011.20 1011.37 1011.48 1011.68 1011.86 1011.98 1012.23 1012.48 1012.63 1012.84 1013.14 1013.36 1013.56
997.87 998.75 999.48 1000.09 1000.99 1001.84 1002.54 1003.07 1003.68 1004.29 1005.05 1005.92 1007.10 1008.04 1008.01 1008.27 1008.64 1008.97 1009.22 1009.43 1009.59 1009.69 1009.77 1010.15 1010.71 1011.01 1011.17 1011.24 1011.24 1010.98 1011.01 1011.23 1011.37 1011.40 1011.50 1011.59 1011.76 1012.01 1012.23 1012.54 1012.78 1012.99 1013.12
998.29 999.00 999.92 1000.57 1001.30 1002.16 1002.92 1003.50 1004.13 1004.80 1005.52 1006.30 1007.28 1007.96 1008.32 1008.82 1009.39 1009.86 1010.28 1010.66 1010.76 1010.89 1011.05 1011.18 1011.42 1011.70 1011.83 1011.86 1011.87 1011.72 1011.49 1011.74 1011.73 1011.59 1011.44 1011.45 1011.53 1011.62 1011.86 1012.28 1012.58 1012.89 1013.14
998.55 999.32 1000.11 1000.98 1001.72 1002.45 1003.24 1003.96 1004.75 1005.39 1006.04 1006.78 1007.56 1008.29 1008.97 1009.75 1010.36 1011.01 1011.46 1011.72 1011.89 1012.13 1012.36 1012.44 1012.58 1012.73 1012.77 1012.63 1012.39 1012.34 1012.34 1012.22 1011.86 1011.69 1011.61 1011.73 1012.07 1011.99 1012.01 1012.42 1012.87 1013.14 1013.34
999.20 999.95 1000.63 1001.46 1002.26 1002.92 1003.82 1004.39 1005.10 1005.77 1006.68 1007.48 1008.33 1009.12 1009.86 1010.61 1011.41 1012.01 1012.43 1012.73 1013.07 1013.37 1013.64 1013.68 1013.78 1013.85 1013.79 1013.84 1013.72 1013.44 1013.07 1012.70 1012.32 1012.34 1012.26 1012.45 1012.62 1012.82 1012.96 1013.20 1013.47 1013.92 1014.17
1000.33 1000.97 1001.78 1002.21 1002.85 1003.64 1004.27 1005.02 1005.86 1006.68 1007.63 1008.55 1009.37 1010.22 1011.01 1011.77 1012.46 1012.95 1013.38 1013.69 1014.08 1014.47 1014.72 1014.78 1014.95 1014.95 1014.72 1014.91 1015.13 1014.79 1014.11 1013.83 1013.76 1013.36 1013.25 1013.42 1013.67 1013.88 1014.13 1014.35 1014.68 1014.94 1014.91
Wind_Speed
11 9 8 7 8 8 8 8 8 9 9 10 10 8 7 6 7 6 6 7 6 6 4 6 6 5 4 3 3 2 3 3 3 1 1 2 3 5 5 4 4 4 3
11 8 8 8 10 9 9 9 9 10 9 10 10 9 8 7 8 8 7 6 7 6 6 6 6 4 5 5 4 4 4 3 4 3 1 2 3 4 5 6 4 4 4
8 9 9 10 11 11 10 10 10 11 10 9 10 10 10 9 9 8 8 7 7 6 7 7 7 6 5 4 3 4 3 3 2 4 3 2 3 3 5 5 5 5 4
9 11 11 12 12 11 11 12 11 10 11 10 10 9 9 9 8 6 6 6 6 5 6 6 6 7 7 6 4 5 4 4 4 5 4 3 3 3 4 5 5 4 4
11 14 14 12 11 12 12 12 12 11 10 10 9 7 7 7 6 7 6 6 6 5 4 5 6 6 6 7 4 5 6 4 6 6 4 3 3 4 6 3 3 4 4
5 8 14 14 12 11 13 13 12 9 9 10 8 8 7 4 9 11 8 6 5 5 5 4 5 7 6 7 7 10 10 10 7 6 3 7 4 3 4 6 5 5 3
10 9 11 13 13 12 11 12 11 11 10 9 9 8 7 6 8 10 10 5 5 5 5 5 4 3 5 4 6 9 6 5 8 9 9 8 6 7 7 7 3 4 3
10 10 11 14 14 13 14 12 10 10 11 9 8 7 8 4 8 10 10 6 5 5 4 5 4 4 4 5 8 8 6 5 5 3 7 6 5 8 6 5 5 6 5
8 12 14 16 16 15 14 12 10 11 9 7 7 9 8 5 7 9 8 5 5 4 3 3 5 4 6 11 9 10 7 4 6 8 10 11 12 13 10 9 5 7 2
12 14 14 16 15 14 14 12 6 9 9 8 8 6 9 7 7 8 7 4 6 4 4 4 6 6 8 9 9 10 8 4 6 6 6 7 7 9 10 7 8 8 4
14 14 15 14 14 13 11 10 10 10 10 8 8 7 7 5 6 8 10 4 4 4 3 3 2 7 10 7 8 7 5 8 8 7 6 5 5 5 3 3 3 9 5
17 16 14 13 11 10 13 10 11 11 11 9 9 6 4 4 6 7 9 6 6 4 4 3 3 9 10 11 7 13 13 9 6 6 6 5 5 4 3 3 4 4 4
14 14 12 13 12 12 12 11 10 10 10 7 6 5 5 2 3 5 6 9 8 3 3 5 7 9 12 10 12 13 9 6 6 5 5 3 4 4 5 4 4 5 5
14 13 11 12 12 11 8 8 9 9 8 6 6 6 5 3 3 3 4 5 8 7 8 5 7 10 10 9 7 4 4 4 5 5 4 4 4 3 3 2 3 3 2
13 12 10 10 11 10 7 4 5 5 9 10 8 7 7 5 3 6 7 5 5 6 7 3 4 5 6 5 4 5 4 4 4 4 5 5 4 4 2 2 2 2 2
12 9 8 8 8 8 7 6 15 9 9 9 11 8 3 8 11 10 9 11 13 11 4 5 6 5 6 5 5 4 3 4 3 4 4 5 4 4 4 2 2 2 2
12 9 8 9 8 8 7 7 7 8 15 13 9 11 11 10 12 10 10 11 10 7 5 5 5 5 5 4 4 3 3 3 4 4 4 4 4 4 4 3 2 2 3
11 12 9 7 7 6 6 6 6 7 7 4 11 6 12 13 12 12 12 9 5 5 4 5 5 4 3 4 3 3 3 3 3 3 4 4 4 4 4 3 3 3 3
11 8 8 7 6 8 7 7 8 8 7 7 5 8 9 12 11 8 4 4 5 4 4 4 4 4 3 4 3 3 4 4 3 4 4 4 4 4 3 4 4 5 4
9 15 10 8 8 8 8 9 9 8 8 7 6 5 2 4 3 2 3 3 4 3 3 4 3 4 4 3 3 3 2 3 4 3 2 3 3 4 4 4 4 4 5
8 8 12 9 8 8 9 8 8 8 7 7 7 6 6 6 4 2 2 3 4 4 4 4 3 3 3 2 2 3 4 3 4 4 4 4 4 3 4 3 3 3 3
9 8 7 9 9 9 9 8 8 8 8 9 7 4 7 6 4 5 6 7 6 6 5 5 5 4 4 4 3 2 4 4 3 3 4 4 5 5 4 4 4 4 4
9 10 8 8 9 11 9 10 8 8 7 8 8 7 6 7 7 7 8 7 7 7 7 7 6 6 5 5 4 4 4 3 2 1 1 2 2 3 3 2 1 2 3
10 11 10 9 9 9 10 10 8 9 9 8 8 8 8 8 7 9 7 7 8 8 8 8 8 9 6 6 5 5 4 2 2 4 5 5 4 4 6 7 5 5 4
9 10 10 10 9 10 10 12 11 10 9 9 9 9 9 9 9 8 8 8 8 9 10 8 8 11 13 14 12 11 9 10 8 6 6 8 9 9 7 6 7 6 7
10 11 8 8 10 9 10 10 11 11 11 10 10 10 10 10 9 9 9 10 9 10 10 9 12 16 16 14 15 13 15 15 12 12 10 8 9 8 8 9 9 6 7
Wind_Direction
219 206 186 174 166 158 164 162 161 145 152 155 152 146 141 155 138 140 138 140 156 156 150 167 179 157 171 168 167 148 155 142 140 317 41 64 84 110 96 89 96 94 104
213 193 184 158 150 154 161 153 148 151 158 153 144 147 154 154 145 139 143 166 166 172 177 170 178 166 180 176 176 187 171 170 130 127 124 101 85 97 107 95 80 95 87
190 165 155 158 156 160 153 148 149 153 148 146 146 156 159 159 154 166 170 168 180 186 175 179 179 170 176 167 183 178 162 154 139 136 132 90 76 114 88 69 64 63 56
173 156 163 161 160 157 150 149 150 147 147 150 151 155 152 154 153 143 161 168 179 185 186 188 174 179 180 175 180 178 154 141 125 128 116 104 84 89 104 119 84 59 64
164 163 165 150 144 140 142 144 139 142 151 140 136 135 134 137 148 160 169 165 172 178 185 185 181 180 183 174 159 169 145 131 136 142 131 115 118 143 144 115 102 105 68
129 164 144 142 133 139 141 135 138 131 130 130 121 126 122 104 142 138 144 147 156 164 172 178 174 171 203 185 183 166 164 155 151 158 139 152 140 120 134 133 142 131 98
130 143 138 140 139 143 135 133 131 129 121 128 114 117 112 121 114 118 127 133 141 152 160 164 163 173 191 179 186 169 159 162 164 164 155 165 150 166 142 139 105 83 100
130 140 151 139 133 137 131 122 124 127 129 124 115 110 110 109 124 125 122 125 132 150 162 173 166 166 177 152 144 137 132 126 144 153 165 150 137 151 147 128 123 95 87
137 156 156 141 132 126 122 131 129 117 114 111 117 117 123 123 144 133 118 112 105 99 98 140 144 139 151 135 130 124 115 95 53 99 114 124 137 139 136 129 129 127 111
183 163 147 130 129 133 126 126 113 117 112 109 104 109 128 128 150 140 120 114 120 110 92 85 77 124 133 149 134 139 135 124 121 99 87 79 116 141 146 148 149 144 123
163 143 129 123 121 125 112 116 117 111 105 99 107 118 121 118 159 159 137 131 141 129 122 119 84 134 125 122 113 121 118 121 108 105 102 105 112 133 112 115 137 147 132
143 128 122 127 122 115 114 117 115 114 111 118 120 103 93 103 114 160 149 127 129 129 149 131 120 136 126 112 85 115 117 119 114 115 121 125 126 127 109 103 122 107 97
119 114 116 116 117 120 121 118 115 118 130 124 126 129 139 114 97 117 133 128 123 99 94 87 109 113 104 85 119 125 124 114 117 119 124 121 128 128 115 95 66 86 79
113 111 112 112 117 116 115 123 125 131 137 133 139 149 151 131 121 114 113 100 94 83 98 95 101 84 79 107 118 97 89 109 127 122 111 106 111 116 124 123 130 141 117
107 110 109 109 109 95 64 75 133 138 160 156 163 162 162 164 180 148 144 135 126 123 121 108 104 102 114 107 91 90 96 98 112 120 122 117 120 127 115 138 104 109 168
113 122 121 114 110 116 122 92 44 47 97 109 130 144 86 121 131 131 128 124 129 147 107 114 111 112 115 111 105 97 91 111 112 118 124 132 135 139 138 139 127 151 176
123 121 116 117 125 135 137 136 118 51 68 55 100 117 121 137 124 125 122 126 138 124 118 111 118 123 127 126 128 130 135 141 136 145 146 148 144 144 151 165 159 157 186
117 118 124 122 125 121 126 122 129 133 123 89 39 69 114 122 121 122 129 123 105 86 106 126 129 128 126 128 136 136 138 142 148 144 154 157 155 156 162 170 180 194 200
121 117 116 113 112 109 116 128 135 118 112 112 112 65 56 77 89 90 93 102 113 122 127 119 108 120 145 153 164 164 153 163 163 163 169 167 170 167 182 201 195 199 199
116 122 116 117 113 111 118 125 124 120 125 126 117 111 109 107 100 78 57 114 114 122 116 121 148 146 140 148 152 156 160 150 162 171 187 184 179 184 199 203 195 197 209
119 118 123 114 114 116 121 121 123 127 124 111 103 115 122 119 104 117 23 112 132 133 130 126 128 119 130 127 150 175 176 179 179 180 189 191 190 201 207 217 231 235 237
120 126 126 123 120 113 119 120 122 122 119 114 117 105 122 112 102 66 50 45 47 45 44 76 69 51 47 44 9 271 176 191 194 199 205 207 202 206 200 204 218 225 232
124 120 119 117 117 117 120 127 117 116 113 114 116 118 101 82 74 67 65 57 54 51 48 60 62 53 39 35 28 15 44 57 42 356 256 250 238 232 197 208 234 74 70
127 122 120 122 126 121 129 127 117 113 112 110 102 94 92 90 80 77 69 68 66 61 58 60 59 58 41 35 37 36 37 17 14 30 45 72 58 61 86 83 71 68 57
101 110 121 122 121 124 125 127 125 116 105 100 96 91 88 87 80 76 73 71 71 66 58 54 55 51 49 40 34 40 37 36 47 40 60 66 69 71 71 76 75 59 49
87 88 93 110 113 117 119 104 103 100 93 90 90 89 92 91 88 84 79 79 76 69 67 58 55 56 54 46 31 24 35 37 35 39 52 55 62 55 57 60 55 56 70